Flag for U.S.A. Weather past 2 weeks in Peoria, Illinois, U.S.A.

Now
51 °F

Clear.


Feels Like: 50 °F
Forecast: 41 / 58 °F
Wind: 5 mph from Southeast

Location: Greater Peoria Regional Airport

Current Time: Oct 22, 2014 at 9:30:12 PM

Latest Report: Oct 22, 2014 at 8:54 PM


Visibility: 10 mi

Pressure: 30.25 "Hg

Humidity: 56%

Dew point: 36 °F

Location of PeoriaLocation

Historic Weather in Peoria — Graph

°F

Peoria temperature yesterday

Maximum temperature yesterday: 61 °F (at 1:54 PM)
Minimum temperature yesterday: 45 °F (at 2:54 AM)
Average temperature yesterday: 51 °F

Past Weeks' High & Low Weather Summary

 TemperatureHumidityPressure
High70 °F (Oct 8, 2:54 PM)93% (Oct 12, 11:54 PM)30.37 "Hg (Oct 12, 11:54 PM)
Low38 °F (Oct 22, 7:54 AM)28% (Oct 8, 2:54 PM)29.43 "Hg (Oct 14, 10:54 AM)
Average55 °F72%29.96 "Hg
* Reported Oct 7 7:54 PM — Oct 22 7:54 PM, Peoria, Weather by CustomWeather, © 2014

Note: Actual official high and low records may vary slightly from our data, if they occured in-between our weather recording intervals... More about our weather records

Advertising

Peoria weather history for previous 24 hours

 ConditionsComfort  
Time TempWeatherWind HumidityBarometerVisibility
7:54 PM
Oct 22
53 °FClear.5 mph52%30.24 "Hg10 mi
6:54 PM56 °FSunny.5 mph47%30.23 "Hg10 mi
5:54 PM58 °FSunny.5 mph44%30.23 "Hg10 mi
4:54 PM61 °FSunny.7 mph39%30.24 "Hg10 mi
3:54 PM62 °FSunny.7 mph41%30.26 "Hg10 mi
2:54 PM62 °FSunny.No wind43%30.28 "Hg10 mi
1:54 PM60 °FSunny.8 mph47%30.30 "Hg10 mi
12:54 PM58 °FSunny.9 mph50%30.32 "Hg10 mi
11:54 AM56 °FSunny.10 mph55%30.34 "Hg10 mi
10:54 AM53 °FSunny.7 mph56%30.36 "Hg10 mi
9:54 AM49 °FSunny.7 mph71%30.37 "Hg10 mi
8:54 AM44 °FSunny.7 mph82%30.36 "Hg9 mi
7:54 AM38 °FFog.7 mph90%30.34 "Hg5 mi
6:54 AM39 °FFog.5 mph86%30.33 "Hg6 mi
5:54 AM40 °FClear.No wind86%30.32 "Hg9 mi
4:54 AM40 °FClear.No wind86%30.30 "Hg10 mi
3:54 AM40 °FClear.3 mph83%30.28 "Hg10 mi
2:54 AM41 °FClear.6 mph82%30.28 "Hg10 mi
1:54 AM42 °FClear.7 mph79%30.27 "Hg10 mi
12:54 AM43 °FClear.7 mph79%30.27 "Hg10 mi
11:54 PM
Oct 21
45 °FClear.7 mph74%30.26 "Hg10 mi
10:54 PM47 °FClear.9 mph71%30.26 "Hg10 mi
9:54 PM49 °FClear.12 mph69%30.26 "Hg10 mi
Weather by CustomWeather, © 2014

See weather overviewHow to use our weather pages